Weather History for Knox, IN

Change the Weather History Date:

Sunday, October 30, 2011

  Actual Average (KVPZ) Record (KVPZ)
Temperature  
Mean Temperature 42 °F 48 °F  
Max Temperature 57 °F 57 °F 76 °F (1999)
Min Temperature 26 °F 39 °F 26 °F (2011)
Degree Days  
Heating Degree Days 24 17  
Month to date heating degree days 384  
Since 1 July heating degree days 514  
Cooling Degree Days 0 0  
Month to date cooling degree days 11  
Year to date cooling degree days 713  
Moisture  
Dew Point 32 °F    
Average Humidity 73    
Maximum Humidity 96    
Minimum Humidity 32    
Precipitation  
Precipitation 0.00 in 0.08 in 2.32 in (2011)
Month to date precipitation 3.16  
Year to date precipitation 31.91  
Sea Level Pressure  
Sea Level Pressure 30.09 in    
Wind  
Wind Speed 6 mph (South)    
Max Wind Speed 21 mph    
Max Gust Speed 32 mph    
Visibility 9 miles    
Events      
T = Trace of Precipitation, MM = Missing Value Source: NWS Daily Summary

Daily Weather History Graph

Daily Weather History Graph

Search for Another Location

Airport:

Trip Planner

Search our weather history database for the weather conditions in past years. The results will help you decide how hot, cold, wet, or windy it might be!

Date:

Astronomy

Oct. 30, 2011 Rise Set
Actual Time 7:15 AM CDT 5:44 PM CDT
Civil Twilight 6:46 AM CDT 6:13 PM CDT
Nautical Twilight 6:14 AM CDT 6:45 PM CDT
Astronomical Twilight 5:42 AM CDT 7:17 PM CDT
Moon 11:36 AM CDT (10/30) 9:11 PM CDT (10/30)
Length of Visible Light 11h 26m
Length of Day
10h 29m
Waxing Crescent, 20% of the Moon is Illuminated
Oct 30
Waxing Crescent
Nov 2
First Quarter
Nov 10
Full
Nov 18
Last Quarter
Nov 25
New

Hourly Weather History & Observations

Time (CDT) Temp. Windchill Dew Point Humidity Pressure Visibility Wind Dir Wind Speed Gust Speed Precip Events Conditions
12:15 AM 29.1 °F - 28.0 °F 96% 30.13 in 7.0 mi Calm Calm - N/A   Clear
12:35 AM 28.8 °F 25.0 °F 27.9 °F 96% 30.13 in 7.0 mi SE 3.5 mph - N/A   Clear
12:55 AM 28.9 °F 25.2 °F 27.7 °F 95% 30.13 in 10.0 mi ESE 3.5 mph - N/A   Clear
1:15 AM 28.2 °F 24.4 °F 27.0 °F 95% 30.14 in 7.0 mi SE 3.5 mph - N/A   Clear
1:35 AM 28.2 °F - 27.1 °F 96% 30.14 in 7.0 mi Calm Calm - N/A   Clear
1:55 AM 27.9 °F - 26.8 °F 96% 30.14 in 10.0 mi Calm Calm - N/A   Clear
2:15 AM 27.9 °F - 26.8 °F 96% 30.14 in 7.0 mi Calm Calm - N/A   Clear
2:35 AM 27.1 °F - 26.2 °F 96% 30.14 in 7.0 mi Calm Calm - N/A   Clear
2:55 AM 27.0 °F - 26.1 °F 96% 30.14 in 7.0 mi Calm Calm - N/A   Clear
3:15 AM 27.1 °F - 26.2 °F 96% 30.14 in 7.0 mi Calm Calm - N/A   Clear
3:35 AM 27.0 °F 23.0 °F 26.1 °F 96% 30.14 in 7.0 mi ESE 3.5 mph - N/A   Clear
3:55 AM 26.8 °F 22.8 °F 25.9 °F 96% 30.14 in 10.0 mi ESE 3.5 mph - N/A   Clear
4:35 AM 27.1 °F - 26.1 °F 96% 30.14 in 10.0 mi Calm Calm - N/A   Clear
4:55 AM 27.9 °F 22.6 °F 26.4 °F 94% 30.14 in 10.0 mi SE 4.6 mph - N/A   Clear
5:15 AM 29.5 °F 24.5 °F 27.5 °F 92% 30.14 in 10.0 mi SE 4.6 mph - N/A   Clear
5:35 AM 30.0 °F 26.5 °F 27.7 °F 91% 30.14 in 10.0 mi SE 3.5 mph - N/A   Clear
5:55 AM 30.2 °F 24.3 °F 27.5 °F 90% 30.14 in 10.0 mi SE 5.8 mph - N/A   Clear
6:15 AM 30.7 °F 24.9 °F 28.0 °F 90% 30.15 in 10.0 mi SE 5.8 mph - N/A   Scattered Clouds
6:35 AM 31.5 °F 25.8 °F 28.4 °F 88% 30.15 in 10.0 mi SE 5.8 mph - N/A   Scattered Clouds
6:55 AM 32.2 °F 25.8 °F 29.5 °F 90% 30.15 in 10.0 mi SE 6.9 mph - N/A   Scattered Clouds
7:15 AM 33.1 °F 27.7 °F 30.6 °F 90% 30.15 in 10.0 mi SSE 5.8 mph - N/A   Mostly Cloudy
7:35 AM 34.3 °F 29.2 °F 30.9 °F 87% 30.15 in 10.0 mi SSE 5.8 mph - N/A   Scattered Clouds
7:55 AM 35.1 °F 28.6 °F 30.9 °F 85% 30.15 in 10.0 mi SSE 8.1 mph - N/A   Mostly Cloudy
8:15 AM 36.7 °F 30.5 °F 31.1 °F 80% 30.15 in 10.0 mi SSE 8.1 mph - N/A   Overcast
8:35 AM 37.6 °F 31.0 °F 31.1 °F 77% 30.15 in 10.0 mi SSE 9.2 mph - N/A   Overcast
8:55 AM 38.3 °F 31.9 °F 30.9 °F 75% 30.15 in 10.0 mi SSE 9.2 mph - N/A   Mostly Cloudy
9:15 AM 39.2 °F 32.5 °F 30.9 °F 72% 30.15 in 10.0 mi SSE 10.4 mph - N/A   Mostly Cloudy
9:35 AM 40.6 °F 34.8 °F 31.1 °F 69% 30.14 in 10.0 mi South 9.2 mph - N/A   Overcast
9:55 AM 41.9 °F 35.9 °F 31.1 °F 66% 30.14 in 10.0 mi South 10.4 mph - N/A   Scattered Clouds
10:15 AM 43.2 °F 37.4 °F 30.7 °F 62% 30.13 in 10.0 mi SSE 10.4 mph - N/A   Scattered Clouds
10:35 AM 46.0 °F 40.2 °F 30.0 °F 54% 30.13 in 10.0 mi South 12.7 mph 19.6 mph N/A   Mostly Cloudy
10:55 AM 47.8 °F - 28.8 °F 48% 30.12 in 10.0 mi South 13.8 mph 24.2 mph N/A   Overcast
11:15 AM 48.6 °F - 29.1 °F 47% 30.11 in 10.0 mi South 17.3 mph 23.0 mph N/A   Overcast
11:35 AM 50.0 °F - 28.9 °F 44% 30.10 in 10.0 mi South 16.1 mph 21.9 mph N/A   Overcast
11:55 AM 51.1 °F - 28.6 °F 42% 30.09 in 10.0 mi South 12.7 mph - N/A   Scattered Clouds
12:15 PM 52.7 °F - 29.1 °F 40% 30.08 in 10.0 mi South 19.6 mph 24.2 mph N/A   Clear
12:35 PM 55.0 °F - 28.2 °F 36% 30.07 in 10.0 mi South 20.7 mph 25.3 mph N/A   Scattered Clouds
1:15 PM 57.0 °F - 27.1 °F 32% 30.04 in 10.0 mi South 19.6 mph 25.3 mph N/A   Scattered Clouds
1:35 PM 57.2 °F - 27.1 °F 32% 30.03 in 10.0 mi SSW 18.4 mph 27.6 mph N/A   Mostly Cloudy
1:55 PM 56.1 °F - 27.3 °F 33% 30.03 in 10.0 mi SSW 20.7 mph 27.6 mph N/A   Scattered Clouds
2:15 PM 55.8 °F - 27.7 °F 34% 30.01 in 10.0 mi South 17.3 mph 25.3 mph N/A   Clear
2:35 PM 55.9 °F - 27.9 °F 34% 30.01 in 10.0 mi South 16.1 mph 27.6 mph N/A   Mostly Cloudy
3:15 PM 56.3 °F - 28.4 °F 34% 30.00 in 10.0 mi South 16.1 mph - N/A   Overcast
3:35 PM 56.3 °F - 28.8 °F 35% 29.99 in 10.0 mi SSW 15.0 mph 21.9 mph N/A   Overcast
3:55 PM 56.3 °F - 28.9 °F 35% 29.99 in 10.0 mi South 13.8 mph - N/A   Overcast
4:15 PM 56.1 °F - 29.5 °F 36% 30.00 in 10.0 mi South 15.0 mph 20.7 mph N/A   Overcast
4:35 PM 55.2 °F - 32.2 °F 42% 30.02 in 10.0 mi SW 17.3 mph 32.2 mph N/A   Overcast
4:55 PM 52.5 °F - 36.7 °F 55% 30.01 in 10.0 mi South 13.8 mph 23.0 mph N/A   Overcast
5:35 PM 51.4 °F - 36.7 °F 57% 30.03 in 7.0 mi SW 16.1 mph 29.9 mph N/A   Overcast
5:55 PM 49.5 °F - 38.5 °F 66% 30.03 in 10.0 mi SSW 13.8 mph - N/A   Overcast
6:15 PM 47.8 °F - 39.6 °F 73% 30.04 in 10.0 mi SSW 8.1 mph - N/A   Overcast
6:35 PM 47.3 °F - 40.3 °F 77% 30.05 in 10.0 mi SW 8.1 mph - N/A   Overcast
6:55 PM 46.6 °F - 41.9 °F 84% 30.05 in 10.0 mi SSW 5.8 mph - N/A   Overcast
7:15 PM 46.2 °F 44.1 °F 42.4 °F 87% 30.06 in 7.0 mi SSW 4.6 mph - N/A   Overcast
7:35 PM 46.0 °F 42.5 °F 42.6 °F 88% 30.05 in 10.0 mi SSW 6.9 mph - N/A   Overcast
7:55 PM 46.0 °F 40.6 °F 42.8 °F 88% 30.06 in 7.0 mi SW 11.5 mph - N/A   Overcast
8:15 PM 45.9 °F 41.7 °F 42.8 °F 89% 30.05 in 7.0 mi SSW 8.1 mph - N/A   Overcast
8:35 PM 45.5 °F 41.8 °F 43.0 °F 91% 30.05 in 10.0 mi SSW 6.9 mph - N/A   Overcast
8:55 PM 45.7 °F 41.0 °F 42.8 °F 90% 30.05 in 10.0 mi South 9.2 mph - N/A   Overcast
9:15 PM 45.7 °F 40.6 °F 42.4 °F 88% 30.04 in 10.0 mi South 10.4 mph - N/A   Overcast
9:35 PM 45.7 °F 41.5 °F 42.6 °F 89% 30.03 in 10.0 mi South 8.1 mph - N/A   Overcast
9:55 PM 45.3 °F 41.1 °F 42.8 °F 91% 30.03 in 10.0 mi South 8.1 mph - N/A   Overcast
10:15 PM 45.9 °F 41.2 °F 42.4 °F 88% 30.02 in 10.0 mi SSE 9.2 mph - N/A   Overcast
10:35 PM 46.0 °F 41.4 °F 42.1 °F 86% 30.02 in 10.0 mi SSE 9.2 mph - N/A   Overcast
10:55 PM 45.7 °F 41.0 °F 42.3 °F 88% 30.02 in 10.0 mi South 9.2 mph - N/A   Overcast
11:15 PM 45.5 °F 40.3 °F 42.3 °F 88% 30.01 in 10.0 mi SE 10.4 mph - N/A   Overcast
11:35 PM 45.5 °F 39.9 °F 42.6 °F 90% 29.99 in 10.0 mi SE 11.5 mph - N/A   Overcast
11:55 PM 45.5 °F 41.3 °F 42.4 °F 89% 29.99 in 10.0 mi SSE 8.1 mph - N/A   Overcast